Volver al catálogo

THOR ABLESTAR DEB

ActivoLEO
NORAD 128·DEBRIS·🇺🇸 United States

Lanzado Jun 29, 1961 desde Cape Canaveral Space Force Station

Loading…

Próximos Pases (próximas 24 horas)

TLE

ActualizadoSource: Space-Track

Época: Sep 14, 2026, 13:24 UTC

1 00128U 61015N   26257.55884710  .00000055  00000-0  84449-4 0  9997
2 00128  66.6760 316.4673 0100763 258.0536 100.9238 14.02053402327602

Sigue THOR ABLESTAR DEB en tiempo real con AllMySat

Download on the App Store